Content
SEND FEEDBACK

Daily
Averages
Monthly
Summary
Turkey

ADIYAMAN, TURKEY


Home > Middle East > Turkey
Elevation: 2224 feet     Latitude: 37 48N     Longitude: 038 18E

WEATHER
 
SELECT A DAY
Number of Records: 142,206;   Date Range: 7/1/96 - 7/26/14
 
SHARE

PRINT THIS DATA

[ ← Previous Day ]
WEATHER ALMANAC - FEBRUARY 25, 2013
[ Next Day → ]
[ °C ]   °F
Weather ElementAverageHighLow
Temperature42.5 °F57.2 °F (1:20 pm)28.4 °F (5:20 am)
Dewpoint33.2 °F37.4 °F (10:50 am)28.4 °F (1:20 am)
Humidity73.1 %100 % (2:20 am)41 % (1:50 pm)
Barometer30.31 in30.36 in (7:50 am)30.27 in (1:50 pm)
Wind Speed4.8 mph9.2 mph (4:20 am)
Weather ElementAverage
Visibility6.2 mi
Wind DirectionSSE (146.8 °)

Weather ElementTotal
Precipitation---
Heating Degree Days22.2 (Base 65)
Averaged from 47 records on February 25, 2013
WEATHER CONDITIONS BREAKOUT
WIND DIRECTION BREAKOUT
WEATHER BY HOUR - FEBRUARY 25, 2013
[ °C ]   °F
Local TimeTemperatureDewpointHumidityBarometerVisibilityWind DirectionWind SpeedGust SpeedPrecipitationEventsConditions
12:50 AM33.8 °F30.2 °F87 %30.30 inVariable2.3 mphClear
1:20 AM32.0 °F28.4 °F87 %30.30 inSSW (210°)4.6 mphClear
1:50 AM30.2 °F28.4 °F93 %30.30 inWSW (250°)4.6 mphClear
2:20 AM32.0 °F32.0 °F100 %30.30 inVariable2.3 mphClear
2:50 AM32.0 °F28.4 °F87 %30.30 inVariable2.3 mphClear
3:20 AM30.2 °F28.4 °F93 %30.30 inVariable2.3 mphClear
3:50 AM30.2 °F28.4 °F93 %30.30 inSW (220°)4.6 mphClear
4:20 AM30.2 °F30.2 °F100 %30.30 inSW (220°)9.2 mphClear
4:50 AM30.2 °F30.2 °F100 %30.30 inSW (230°)5.8 mphClear
5:20 AM28.4 °F28.4 °F100 %30.30 inSW (220°)5.8 mphClear
5:50 AM28.4 °F28.4 °F100 %30.33 inSW (220°)5.8 mphClear
6:20 AM28.4 °F28.4 °F100 %30.33 inSW (220°)9.2 mphClear
6:50 AM32.0 °F30.2 °F93 %30.33 inSW (220°)6.9 mphClear
7:20 AM35.6 °F33.8 °F93 %30.33 inSSW (200°)3.5 mphClear
7:50 AM41.0 °F35.6 °F81 %30.36 inESE (120°)2.3 mphClear
8:20 AM44.6 °F35.6 °F71 %30.36 inVariable2.3 mphClear
8:50 AM46.4 °F35.6 °F66 %30.36 inSE (130°)3.5 mphClear
9:20 AM48.2 °F35.6 °F62 %30.36 inESE (120°)4.6 mphClear
9:50 AM48.2 °F35.6 °F62 %30.36 inSE (130°)4.6 mphClear
10:20 AM50.0 °F35.6 °F58 %30.36 inESE (110°)3.5 mphClear
10:50 AM51.8 °F37.4 °F58 %30.36 inEast (100°)2.3 mphClear
11:20 AM53.6 °F37.4 °F54 %30.33 inEast (80°)4.6 mphClear
11:50 AM55.4 °F37.4 °F51 %30.33 inSE (130°)4.6 mphClear
12:20 PM55.4 °F37.4 °F51 %30.30 in6.2 miENE (70°)5.8 mphScattered Clouds
12:50 PM55.4 °F37.4 °F51 %30.30 in6.2 miEast (80°)5.8 mphPartly Cloudy
1:20 PM57.2 °F35.6 °F44 %30.30 in6.2 miVariable4.6 mphScattered Clouds
1:50 PM57.2 °F33.8 °F41 %30.27 in6.2 miENE (60°)5.8 mphScattered Clouds
2:20 PM57.2 °F33.8 °F41 %30.27 in6.2 miENE (60°)5.8 mphScattered Clouds
2:50 PM57.2 °F37.4 °F48 %30.27 in6.2 miNNE (30°)4.6 mphScattered Clouds
3:20 PM57.2 °F35.6 °F44 %30.27 in6.2 miVariable2.3 mphScattered Clouds
3:50 PM57.2 °F35.6 °F44 %30.27 in6.2 miNE (50°)4.6 mphScattered Clouds
4:20 PM55.4 °F35.6 °F47 %30.27 in6.2 miENE (60°)6.9 mphScattered Clouds
4:50 PM53.6 °F33.8 °F47 %30.27 in6.2 miNE (50°)5.8 mphScattered Clouds
5:20 PM51.8 °F33.8 °F50 %30.27 in6.2 miNE (50°)4.6 mphScattered Clouds
5:50 PM46.4 °F35.6 °F66 %30.30 in6.2 miNW (310°)3.5 mphScattered Clouds
6:20 PM42.8 °F35.6 °F76 %30.30 in6.2 miNW (310°)5.8 mphPartly Cloudy
6:50 PM42.8 °F33.8 °F70 %30.30 in6.2 miWNW (300°)5.8 mphScattered Clouds
7:20 PM41.0 °F33.8 °F76 %30.30 in6.2 miNW (320°)5.8 mphMostly Cloudy
7:50 PM42.8 °F33.8 °F70 %30.30 in6.2 miWNW (290°)4.6 mphMostly Cloudy
8:20 PM41.0 °F33.8 °F76 %30.30 inSW (230°)2.3 mphClear
8:50 PM37.4 °F33.8 °F87 %30.30 inSSW (200°)3.5 mphClear
9:20 PM35.6 °F32.0 °F87 %30.30 inSW (220°)6.9 mphClear
9:50 PM37.4 °F33.8 °F87 %30.30 inSSW (210°)5.8 mphClear
10:20 PM37.4 °F32.0 °F81 %30.30 inSW (220°)6.9 mphClear
10:50 PM35.6 °F32.0 °F87 %30.27 inSSW (210°)6.9 mphClear
11:20 PM33.8 °F30.2 °F87 %30.27 inSW (220°)6.9 mphClear
11:50 PM33.8 °F30.2 °F87 %30.27 inSW (220°)4.6 mphClear
Hourly data recorded from LTCP, located miles away from Adiyaman, Turkey







STORIES FROM OUR PARTNERS